TIME,DELAY(SENSOR),PRES,OXYGEN,RAWTEMP,T(OPTODE),TCPHASE,FLUOR,BETA(BETA700),BETA(BETA412),BETA(BETA440),CDOM,C(CSC),ED(ED412.40),ED(ED444.00),ED(ED489.70),ED(ED554.30),LU(LU411.80),LU(LU443.40),LU(LU489.60),LU(LU554.10),COMP,TILTX,TILTY,CHECK
1362109679,5804,861.2899780273438000,43.6506500244140600,657.5609130859375000,4.7082390785217285,54.4239997863769500,52,102,85,79,80,14889,2147754002,2147424411,2148013056,2147875876,2147636818,2147054153,2148255433,2147200768,2121,4,14,41501
1362113275,5805,965.5100097656250000,46.2085418701171900,666.8972778320312000,4.4006347656250000,54.1617088317871100,53,100,85,80,81,14789,2147756397,2147425389,2148009380,2147875830,2147639634,2147055707,2148260608,2147197458,2965,4,13,60602
1362116875,5810,966.4699707031250000,47.4319000244140600,670.1267089843750000,4.2940120697021480,54.0266990661621100,53,99,84,79,80,14793,2147759442,2147427108,2148012242,2147872237,2147640347,2147056329,2148259776,2147197714,623,4,13,46378
1362120475,5807,995.0599975585938000,49.0739212036132800,672.2036743164062000,4.2253718376159670,53.8273582458496100,52,98,88,78,80,14789,2147757595,2147427492,2148009609,2147874642,2147641682,2147053878,2148260224,2147196553,2861,4,13,48129
1362124075,5811,1000.6900024414062000,48.9529190063476560,672.0623168945312000,4.2300472259521480,53.8453216552734400,52,100,87,79,81,14788,2147758573,2147425033,2148004818,2147873188,2147642176,2147057334,2148259574,2147197275,3557,4,14,20832
1362127675,5807,1001.9099731445312000,49.2300605773925800,672.9910278320312000,4.1993451118469240,53.8129196166992200,52,100,84,79,81,14789,2147758235,2147425005,2148010742,2147874166,2147642852,2147059492,2148255981,2147198646,2947,4,13,38298
1362131275,5810,1005.9299926757812000,48.8929214477539060,672.4865722656250000,4.2160210609436035,53.8533592224121100,51,98,86,79,80,14775,2147755629,2147423451,2148009764,2147874852,2147641005,2147056704,2148262866,2147198189,3140,4,13,28801
1362134875,5807,1006.6799926757812000,49.0016593933105500,672.5582275390625000,4.2136540412902830,53.8401184082031250,52,98,85,79,80,14771,2147753801,2147424201,2148005485,2147873106,2147640859,2147059328,2148260288,2147195328,3519,4,13,40203
1362138475,5810,1004.6799926757812000,48.9937896728515600,673.1459960937500000,4.1942181587219240,53.8470916748046900,53,99,91,79,80,14768,2147758820,2147420480,2148009910,2147872740,2147640932,2147056539,2148263113,2147193901,2045,4,13,37979
1362142075,5810,1008.0399780273438000,49.7404785156250000,673.9401245117188000,4.1679520606994630,53.7536888122558600,53,98,87,78,81,14770,2147756068,2147424530,2148009965,2147875776,2147642020,2147054308,2148266240,2147196160,3199,4,13,56970
1362145675,5811,1008.8900146484375000,49.6082115173339840,673.9506225585938000,4.1676077842712400,53.7729301452636700,54,100,89,78,81,14765,2147756324,2147426121,2148009910,2147873362,2147641426,2147062244,2148262610,2147198710,3317,4,13,4869
1362149275,5809,1004.0100097656250000,49.9039802551269500,675.8355102539062000,4.1052341461181640,53.7566413879394500,51,99,84,80,81,14771,2147756013,2147425947,2148008512,2147873691,2147641718,2147063296,2148264082,2147197641,3239,4,13,52200
1362152875,5810,1006.5399780273438000,49.8950691223144500,674.8795166015625000,4.1368751525878910,53.7440490722656250,52,97,86,79,79,14766,2147758336,2147423067,2148008192,2147870902,2147641088,2147059245,2148264850,2147198290,357,4,13,42879
1362156475,5812,1004.9199829101562000,49.4776687622070300,674.4268188476562000,4.1518540382385250,53.7996597290039060,51,99,82,79,80,14761,2147756891,2147425115,2148010733,2147872448,2147643053,2147059812,2148261522,2147196891,266,4,13,45923
1362160075,5810,1015.6400146484375000,49.2736206054687500,673.5372924804688000,4.1812758445739750,53.8109397888183600,53,98,85,78,80,14765,2147756041,2147425828,2148007945,2147874185,2147639972,2147059044,2148260635,2147193993,40,4,13,1400
1362163675,5803,1020.8099975585938000,48.7188301086425800,672.5845947265625000,4.2127819061279300,53.8795890808105500,52,99,88,80,81,14767,2147755766,2147427382,2148010048,2147873517,2147640411,2147057728,2148258432,2147193993,188,4,13,41332
1362167275,5807,1018.4299926757812000,48.6236495971679700,672.5590820312500000,4.2136211395263670,53.8897590637207000,52,98,86,80,81,14764,2147755830,2147424923,2148007689,2147873417,2147641005,2147053915,2148258550,2147197494,156,4,13,9822
1362170875,5806,1013.7299804687500000,48.7175483703613300,673.2700195312500000,4.1901168823242190,53.8937416076660160,52,98,88,79,81,14763,2147757421,2147428205,2148010706,2147877650,2147639917,2147057993,2148259492,2147196507,177,4,13,15927
1362174475,5808,1015.4600219726562000,48.5994491577148440,673.7346801757812000,4.1747469902038570,53.9085693359375000,52,99,85,78,80,14762,2147757394,2147426450,2148010514,2147875254,2147642221,2147062235,2148262034,2147195821,121,4,13,52334
1362178075,5808,1013.2100219726562000,48.7356185913085940,673.6278076171875000,4.1782817840576170,53.8881187438964840,52,98,87,79,80,14761,2147756827,2147423021,2148006848,2147874550,2147639414,2147056539,2148260937,2147196251,132,4,13,45453
1362181675,5808,1015.3400268554688000,49.0602912902832000,673.9929199218750000,4.1662039756774900,53.8509483337402340,52,100,88,79,80,14761,2147753892,2147421750,2148010112,2147875748,2147645321,2147058806,2148261805,2147199606,3370,4,13,7904
1362185275,5806,1006.9400024414062000,48.6283187866210940,673.7213745117188000,4.1751861572265625,53.9072685241699200,52,101,86,78,81,14759,2147756443,2147426898,2148005659,2147875300,2147638857,2147058587,2148258340,2147197321,3529,4,13,45533
1362188875,5809,1013.3699951171875000,49.0746612548828100,674.2368164062500000,4.1581401824951170,53.8510093688964840,52,99,89,80,80,14750,2147755446,2147426880,2148009225,2147874066,2147642678,2147058916,2148264630,2147196160,265,4,13,2876
1362192475,5812,1009.7199707031250000,49.1003799438476560,674.1771850585938000,4.1601090431213380,53.8488502502441400,52,98,87,79,81,14745,2147755538,2147425124,2148009197,2147874541,2147642011,2147055844,2148256128,2147195684,485,4,13,10829
1362196075,5809,1009.3099975585938000,49.4763793945312500,675.5103759765625000,4.1159949302673340,53.8113288879394500,52,98,88,78,80,14744,2147755593,2147425444,2148010102,2147871378,2147641764,2147058358,2148255753,2147196150,275,4,13,10014
1362199675,5807,1013.1500244140625000,48.7529106140136700,674.8073120117188000,4.1392650604248050,53.9003105163574200,52,96,84,78,81,14747,2147756507,2147425883,2148009389,2147876141,2147643099,2147058870,2148259721,2147195684,3595,4,14,37611
1362203275,5808,1016.7199707031250000,49.2914810180664060,673.6668090820312000,4.1769919395446780,53.8167114257812500,52,96,88,80,80,14739,2147758189,2147423606,2148008182,2147875072,2147641691,2147060050,2148256411,2147198381,333,4,13,36760
1362206875,5807,1012.0599975585938000,48.8415107727050800,674.6857299804688000,4.1432862281799320,53.8928718566894500,53,97,83,78,80,14741,2147755702,2147423789,2148010532,2147871131,2147642550,2147057216,2148260086,2147199533,163,4,13,27681
1362210475,5808,1016.8599853515625000,48.5581893920898440,674.8248291015625000,4.1386852264404300,53.9322090148925800,52,99,88,78,81,14737,2147760036,2147423021,2148009060,2147875245,2147641435,2147057545,2148259913,2147198409,174,4,13,44032
1362214075,5809,1018.9899902343750000,48.3132591247558600,674.2979736328125000,4.1561131477355960,53.9610710144043000,53,98,89,79,80,14741,2147759798,2147421878,2148012077,2147873700,2147637604,2147055661,2148259803,2147195821,121,4,13,42906
1362217675,5807,1027.2199707031250000,49.0754890441894500,673.5217895507812000,4.1817889213562010,53.8403205871582000,52,99,87,79,81,14739,2147757970,2147426459,2148011858,2147873472,2147638838,2147058020,2148258157,2147196745,109,4,13,10377
1362221275,5808,1020.3200073242188000,48.4693908691406250,673.5100708007812000,4.1821751594543460,53.9235610961914060,52,98,87,78,80,14740,2147759570,2147422875,2148007981,2147873938,2147640548,2147062793,2148255625,2147196205,193,4,14,7812
1362224875,5809,1020.4099731445312000,48.4726295471191400,674.4348144531250000,4.1515879631042480,53.9358406066894500,51,98,84,79,81,14739,2147758016,2147426285,2148011977,2147876434,2147644022,2147062290,2148257206,2147195200,2990,4,13,29150
1362228475,5811,1021.8300170898438000,48.8517112731933600,673.6406860351562000,4.1778559684753420,53.8770790100097660,52,97,91,79,80,14734,2147756150,2147427922,2148010925,2147872448,2147640950,2147055936,2148260662,2147194139,3554,4,13,29285
1362232075,5809,1021.2500000000000000,48.1519813537597660,672.6975708007812000,4.2090439796447750,53.9635810852050800,52,100,85,78,79,14733,2147753764,2147426294,2148009280,2147874203,2147641298,2147056694,2148256137,2147197805,3450,4,13,29760
1362235675,5809,1021.5999755859375000,48.1455307006835940,673.5244140625000000,4.1817040443420410,53.9745597839355500,51,96,84,79,80,14732,2147757330,2147422445,2148010322,2147871286,2147640347,2147059803,2148261677,2147199360,516,4,13,36641
1362239275,5808,1017.9400024414062000,48.5538711547851560,674.6541137695312000,4.1443347930908200,53.9261207580566400,51,98,83,78,79,14732,2147756013,2147421851,2148008740,2147874395,2147639003,2147059986,2148262875,2147195529,2489,4,13,12343
1362242875,5811,1015.4299926757812000,48.9023284912109400,674.4224853515625000,4.1519927978515625,53.8777618408203100,53,100,86,79,81,14732,2147759561,2147427035,2148010176,2147873691,2147639945,2147056740,2148259419,2147197074,218,4,13,50193
1362246475,5810,1020.1400146484375000,48.3664093017578100,675.1640014648438000,4.1274590492248535,53.9586715698242200,52,99,86,80,80,14754,2147756836,2147424301,2148008877,2147873700,2147641490,2147055661,2148260672,2147197348,488,4,13,50820
1362250075,5809,1025.8800048828125000,48.9619598388671900,674.4063720703125000,4.1525249481201170,53.8739509582519500,53,100,85,78,80,14759,2147759030,2147424082,2148009526,2147875456,2147641609,2147055158,2148258468,2147195666,3536,4,13,39034
1362253675,5810,1028.8000488281250000,48.8350181579589840,673.2877807617188000,4.1895289421081540,53.8705902099609400,52,100,86,78,80,14757,2147754404,2147424347,2148010688,2147873801,2147639872,2147055533,2148258934,2147193417,2881,4,13,50717
1362255055,5811,1032.7700195312500000,48.6318397521972660,672.4207763671875000,4.2181968688964840,53.8940391540527340,53,100,88,79,80,14839,2147757412,2147424274,2148010605,2147873892,2147639762,2147060955,2148260416,2147200420,54,4,13,27363
